[[{"header":{"parameterUnit":"m.s-1","parameterCategory":1,"la1":30.2991,"la2":30.254,"lo1":-89.0895,"lo2":-89.0444,"dy":0.0017,"dx":0.0017,"nx":28,"ny":28,"refTime":"2024-10-08T09:00:00:Z","depth":0,"parameterNumber":2,"parameterNumberName":"U-component_of_WINDS"},"data":[0,0,0,0,0,0,0,0,0,0,0,0,0,0,0,0,0,0,0,0,0,0,0,0,0,0,0,0,0,0,0,0,0,0,0,0,0,0,0,0,0,0,0,0,0,0,0,0,0,0,0,0,0,0,0,0,0,0,-1.1493,-1.1493,0,-1.1567,-1.1568,-1.1569,-1.1558,-1.1557,-1.1556,-1.1554,-1.1634,-1.1637,-1.164,0,0,0,0,0,0,0,0,0,0,0,0,0,-1.1344,-1.1346,-1.1492,-1.1493,-1.1494,-1.1567,-1.1568,-1.1569,-1.1558,-1.1557,-1.1555,-1.1554,-1.1633,-1.1637,-1.1641,0,0,0,0,0,0,0,0,0,0,0,0,0,-1.1412,-1.1347,-1.1492,-1.1498,-1.1499,-1.1567,-1.1568,-1.1569,-1.1559,-1.1557,-1.1555,-1.1553,-1.1631,-1.1636,-1.1641,-1.1709,0,0,-1.1656,-1.1658,0,0,0,0,0,0,0,0,-1.1409,-1.1418,-1.1496,-1.1497,-1.1499,-1.1551,-1.1545,-1.1616,-1.1559,-1.1536,-1.1554,-1.1552,-1.1608,-1.1615,-1.1633,-1.1713,-1.1717,-1.1657,-1.166,-1.1662,-1.1663,0,0,0,0,0,0,0,-1.1404,-1.1415,-1.1522,-1.1497,-1.1499,-1.1497,-1.1505,-1.1558,-1.1582,-1.1538,-1.1537,-1.1546,-1.1609,-1.1628,-1.1635,-1.1718,-1.1657,-1.1661,-1.1664,-1.1666,-1.1859,-1.1861,0,0,0,0,0,0,-1.1397,-1.1411,-1.152,-1.1524,-1.1448,-1.1502,-1.151,-1.1536,-1.1581,-1.1586,-1.1548,-1.1545,-1.1621,-1.1629,-1.1638,-1.1722,-1.1662,-1.1666,-1.1669,-1.1857,-1.186,-1.1862,0,0,0,0,0,0,-1.1394,-1.1407,-1.1517,-1.1467,-1.1481,-1.1506,-1.1536,-1.1539,-1.1559,-1.1589,-1.1593,-1.1563,-1.162,-1.1631,-1.1692,-1.1724,-1.1669,-1.1673,-1.1855,-1.1858,-1.1861,-1.189,0,0,0,0,0,0,-1.139,-1.1406,-1.1431,-1.1468,-1.1484,-1.1569,-1.1538,-1.1542,-1.1567,-1.1565,-1.1604,-1.1609,-1.1619,-1.1685,-1.1697,-1.173,-1.1677,-1.1852,-1.1856,-1.186,-1.1886,-1.1894,-1.1901,0,0,0,0,0,-1.1384,-1.1437,-1.1433,-1.1446,-1.1516,-1.1571,-1.158,-1.1589,-1.1569,-1.1596,-1.1615,-1.1608,-1.1718,-1.1691,-1.1705,-1.174,-1.185,-1.1855,-1.186,-1.1883,-1.1893,-1.19,0,0,0,0,0,0,-1.1404,-1.1442,-1.1438,-1.1503,-1.1534,-1.1569,-1.1602,-1.1598,-1.1636,-1.1632,-1.1643,-1.1652,-1.1715,-1.1733,-1.1702,-1.1809,-1.1782,-1.179,-1.1795,-1.1804,-1.1811,-1.1806,-1.1681,0,0,0,0,0,-1.1416,-1.1456,-1.1487,-1.1542,-1.1558,-1.1577,-1.1602,-1.1606,-1.1638,-1.1652,-1.1675,-1.1708,-1.175,-1.1778,-1.1818,-1.1889,-1.1898,-1.192,-1.1927,-1.1932,-1.194,-1.198,-1.199,-1.1878,-1.1878,-1.1878,0,0,-1.1442,-1.1467,-1.1492,-1.1547,-1.1571,-1.1614,-1.1588,-1.1634,-1.1667,-1.1659,-1.1718,-1.1737,-1.1774,-1.184,-1.1871,-1.1858,-1.1973,-1.1939,-1.1943,-1.1947,-1.1986,-1.1997,-1.2006,-1.1882,-1.1881,-1.188,0,0,-1.151,-1.1532,-1.1581,-1.1606,-1.1643,-1.1655,-1.1667,-1.1703,-1.1715,-1.1774,-1.177,-1.1808,-1.188,-1.1907,-1.1931,-1.2009,-1.2005,-1.2022,-1.206,-1.2099,-1.2108,-1.2116,-1.2146,-1.2156,-1.2029,-1.2029,-1.2029,0,-1.1537,-1.16,-1.1607,-1.1654,-1.1679,-1.1673,-1.1724,-1.1747,-1.1796,-1.1814,-1.1798,-1.1889,-1.1914,-1.1987,-1.2006,-1.2025,-1.204,-1.2019,-1.2106,-1.2114,-1.2121,-1.215,-1.2161,-1.2031,-1.2031,-1.2031,-1.203,0,-1.1633,-1.1676,-1.1712,-1.1758,-1.1787,-1.1835,-1.1851,-1.1879,-1.1881,-1.1896,-1.1957,-1.1986,-1.2033,-1.2051,-1.2053,-1.2125,-1.2116,-1.2103,-1.2076,-1.2134,-1.2161,-1.2172,-1.2034,-1.2033,-1.2033,-1.2032,0,0,-1.1716,-1.1766,-1.1779,-1.18,-1.184,-1.1875,-1.1923,-1.1968,-1.1993,-1.2027,-1.2069,-1.213,-1.2118,-1.2145,-1.215,-1.2184,-1.2247,-1.2167,-1.2168,-1.2183,-1.233,-1.2341,-1.2353,-1.2243,-1.2245,-1.2247,-1.2327,0,-1.179,-1.1875,-1.1883,-1.196,-1.2001,-1.1996,-1.2039,-1.2068,-1.2083,-1.2122,-1.2139,-1.2183,-1.2163,-1.2179,-1.2212,-1.2232,-1.2277,-1.2226,-1.2285,-1.2287,-1.2277,-1.2367,-1.2379,-1.2453,-1.2338,-1.234,-1.2341,0,-1.1887,-1.1923,-1.2004,-1.2039,-1.2056,-1.2094,-1.2137,-1.2173,-1.2207,-1.2216,-1.2245,-1.2246,-1.2298,-1.2267,-1.2339,-1.2305,-1.2329,-1.2342,-1.2345,-1.2353,-1.2318,-1.2379,-1.2477,-1.2489,-1.2357,-1.2356,-1.2355,0,-1.1942,-1.201,-1.2068,-1.2086,-1.2128,-1.2155,-1.2174,-1.2206,-1.2233,-1.227,-1.2288,-1.2331,-1.2355,-1.2389,-1.2402,-1.2378,-1.2474,-1.2444,-1.2484,-1.2484,-1.2506,-1.2505,-1.2612,-1.2519,-1.2519,-1.2518,-1.2518,0,-1.2024,-1.2074,-1.2093,-1.2129,-1.2185,-1.2194,-1.225,-1.2268,-1.2297,-1.2337,-1.2335,-1.2372,-1.2387,-1.2427,-1.2438,-1.2497,-1.2507,-1.2517,-1.2519,-1.2518,-1.2517,-1.2535,-1.2531,-1.2521,-1.2521,-1.252,-1.252,0,-1.2096,-1.211,-1.2173,-1.2207,-1.2217,-1.2258,-1.2288,-1.2323,-1.2337,-1.2388,-1.24,-1.2423,-1.2471,-1.2487,-1.2544,-1.2551,-1.2621,-1.2618,-1.2609,-1.261,-1.265,-1.2647,-1.2774,-1.2792,-1.2685,-1.2686,-1.2687,0,-1.2148,-1.2186,-1.2225,-1.2251,-1.2271,-1.2313,-1.234,-1.2351,-1.238,-1.2422,-1.2452,-1.2499,-1.2537,-1.2614,-1.2637,-1.2681,-1.268,-1.2722,-1.2687,-1.2685,-1.2683,-1.2682,-1.2686,-1.2729,-1.273,-1.2731,-1.2732,0,-1.224,-1.2245,-1.2284,-1.2326,-1.2358,-1.2392,-1.2425,-1.2446,-1.2462,-1.2494,-1.2543,-1.2572,-1.2631,-1.2678,-1.2724,-1.2745,-1.2742,-1.2742,-1.2754,-1.2754,-1.2748,-1.2754,-1.2629,-1.2739,-1.2739,-1.2738,-1.2738,-1.2737,-1.2305,-1.2339,-1.2372,-1.2416,-1.2441,-1.2472,-1.2507,-1.2525,-1.2565,-1.2613,-1.2617,-1.267,-1.2704,-1.2765,-1.2788,-1.283,-1.2818,-1.2835,-1.284,-1.2844,-1.2848,-1.274,-1.2838,-1.2838,-1.2837,-1.2837,-1.2837,0,-1.2398,-1.2419,-1.2459,-1.2504,-1.2539,-1.2531,-1.2567,-1.2597,-1.2643,-1.2675,-1.2712,-1.2769,-1.2815,-1.2841,-1.2887,-1.2916,-1.2916,-1.2928,-1.2927,-1.2932,-1.2855,-1.2841,-1.2927,-1.2927,-1.2927,-1.2927,-1.2927,-1.2927,-1.2451,-1.2509,-1.2518,-1.259,-1.261,-1.2661,-1.2683,-1.2711,-1.2737,-1.2799,-1.2837,-1.2853,-1.2884,-1.2932,-1.2975,-1.2981,-1.2999,-1.3013,-1.3019,-1.2947,-1.2937,-1.2929,-1.2915,-1.3016,-1.3016,-1.3092,-1.3093,-1.3094]},{"header":{"parameterUnit":"m.s-1","parameterCategory":1,"la1":30.2991,"la2":30.254,"lo1":-89.0895,"lo2":-89.0444,"dy":0.0017,"dx":0.0017,"nx":28,"ny":28,"refTime":"2024-10-08T09:00:00:Z","depth":0,"parameterNumber":3,"parameterNumberName":"V-component_of_WINDS"},"data":[0,0,0,0,0,0,0,0,0,0,0,0,0,0,0,0,0,0,0,0,0,0,0,0,0,0,0,0,0,0,0,0,0,0,0,0,0,0,0,0,0,0,0,0,0,0,0,0,0,0,0,0,0,0,0,0,0,0,-5.1816,-5.1816,0,-5.1827,-5.1827,-5.1827,-5.1733,-5.173,-5.1728,-5.1725,-5.1733,-5.1736,-5.1739,0,0,0,0,0,0,0,0,0,0,0,0,0,-5.1709,-5.1711,-5.1816,-5.1816,-5.1816,-5.1827,-5.1827,-5.1827,-5.1733,-5.173,-5.1727,-5.1724,-5.1733,-5.1736,-5.1739,0,0,0,0,0,0,0,0,0,0,0,0,0,-5.1741,-5.1712,-5.1816,-5.177,-5.1766,-5.1827,-5.1827,-5.1827,-5.1734,-5.173,-5.1726,-5.1722,-5.1732,-5.1735,-5.1739,-5.1843,0,0,-5.1752,-5.1753,0,0,0,0,0,0,0,0,-5.174,-5.1745,-5.1777,-5.1774,-5.1769,-5.1775,-5.1793,-5.1832,-5.1735,-5.1746,-5.1725,-5.172,-5.175,-5.1752,-5.1763,-5.1843,-5.1844,-5.1752,-5.1754,-5.1756,-5.1757,0,0,0,0,0,0,0,-5.1738,-5.1744,-5.182,-5.1777,-5.1773,-5.1748,-5.1749,-5.18,-5.177,-5.1745,-5.1738,-5.1741,-5.1747,-5.1759,-5.1763,-5.1844,-5.1752,-5.1755,-5.1758,-5.1759,-5.201,-5.2014,0,0,0,0,0,0,-5.1742,-5.1743,-5.182,-5.182,-5.1745,-5.1754,-5.1754,-5.1777,-5.1769,-5.1764,-5.1744,-5.1737,-5.1754,-5.1758,-5.1762,-5.1884,-5.1756,-5.176,-5.1762,-5.2006,-5.2011,-5.2016,0,0,0,0,0,0,-5.174,-5.175,-5.1819,-5.178,-5.1787,-5.176,-5.1786,-5.1779,-5.1791,-5.1769,-5.1763,-5.1762,-5.1752,-5.1757,-5.1824,-5.1883,-5.1762,-5.1765,-5.2001,-5.2007,-5.2013,-5.2127,0,0,0,0,0,0,-5.1737,-5.1749,-5.1789,-5.1782,-5.1789,-5.1882,-5.179,-5.1782,-5.1799,-5.1789,-5.1784,-5.178,-5.1749,-5.1819,-5.1828,-5.1886,-5.1768,-5.1995,-5.2004,-5.2011,-5.2118,-5.2137,-5.2152,0,0,0,0,0,-5.1734,-5.182,-5.1792,-5.1801,-5.1839,-5.1885,-5.189,-5.1854,-5.1804,-5.1843,-5.1829,-5.178,-5.1875,-5.1826,-5.1836,-5.1896,-5.1992,-5.2001,-5.2011,-5.211,-5.2133,-5.2152,0,0,0,0,0,0,-5.1833,-5.1818,-5.1787,-5.1873,-5.1882,-5.1869,-5.1918,-5.1879,-5.19,-5.189,-5.1843,-5.1843,-5.1918,-5.1913,-5.186,-5.1996,-5.1924,-5.1936,-5.1997,-5.2018,-5.2035,-5.2035,-5.1772,0,0,0,0,0,-5.1866,-5.1906,-5.189,-5.1967,-5.1973,-5.1945,-5.1964,-5.1936,-5.1942,-5.1945,-5.1935,-5.1943,-5.1974,-5.1995,-5.2023,-5.2117,-5.2114,-5.2163,-5.218,-5.2194,-5.2206,-5.2255,-5.2277,-5.2047,-5.2047,-5.2047,0,0,-5.1932,-5.1928,-5.1956,-5.1987,-5.199,-5.2033,-5.1949,-5.1996,-5.2027,-5.1951,-5.2015,-5.2009,-5.2013,-5.2095,-5.213,-5.2093,-5.2269,-5.2207,-5.2218,-5.2221,-5.2268,-5.2289,-5.2309,-5.2054,-5.2052,-5.2051,0,0,-5.2075,-5.2076,-5.2142,-5.2147,-5.2154,-5.2135,-5.2151,-5.2145,-5.2138,-5.2201,-5.2146,-5.2181,-5.2236,-5.2242,-5.2253,-5.2399,-5.2355,-5.2409,-5.25,-5.2549,-5.2567,-5.2583,-5.2636,-5.2655,-5.242,-5.2421,-5.2421,0,-5.2156,-5.2219,-5.218,-5.2232,-5.2247,-5.2183,-5.2248,-5.2255,-5.227,-5.2281,-5.224,-5.2309,-5.2307,-5.239,-5.2426,-5.2436,-5.2452,-5.241,-5.2568,-5.2583,-5.2597,-5.2648,-5.2668,-5.2427,-5.2427,-5.2426,-5.2425,0,-5.2319,-5.2363,-5.2415,-5.2433,-5.2454,-5.2512,-5.2482,-5.2507,-5.2477,-5.2463,-5.2528,-5.2524,-5.2551,-5.2568,-5.2538,-5.2646,-5.2623,-5.2576,-5.2503,-5.2627,-5.2673,-5.2692,-5.2437,-5.2434,-5.2432,-5.2431,0,0,-5.2524,-5.2521,-5.2541,-5.2549,-5.2552,-5.2585,-5.264,-5.2667,-5.2691,-5.2703,-5.2748,-5.2797,-5.2754,-5.2766,-5.2736,-5.2779,-5.2897,-5.2726,-5.2726,-5.2759,-5.3016,-5.3053,-5.3076,-5.2868,-5.2871,-5.2874,-5.3016,0,-5.2664,-5.276,-5.2728,-5.2825,-5.2866,-5.2805,-5.2854,-5.2861,-5.2848,-5.288,-5.2865,-5.2901,-5.2841,-5.2848,-5.2888,-5.2874,-5.2948,-5.2863,-5.2909,-5.2911,-5.2911,-5.31,-5.3138,-5.3272,-5.3034,-5.3037,-5.3039,0,-5.284,-5.2862,-5.2964,-5.2962,-5.2977,-5.3022,-5.3044,-5.3076,-5.3082,-5.307,-5.3085,-5.3046,-5.31,-5.3027,-5.31,-5.3044,-5.306,-5.3056,-5.3061,-5.3064,-5.2983,-5.3108,-5.3314,-5.3335,-5.3067,-5.3065,-5.3063,0,-5.298,-5.3035,-5.3104,-5.3112,-5.3111,-5.3143,-5.3144,-5.3147,-5.3166,-5.3185,-5.3197,-5.3222,-5.3236,-5.3256,-5.3225,-5.3174,-5.3303,-5.3227,-5.3294,-5.3296,-5.3324,-5.3323,-5.3537,-5.3335,-5.3334,-5.3334,-5.3333,0,-5.314,-5.3205,-5.3167,-5.3209,-5.3281,-5.3242,-5.3313,-5.3307,-5.331,-5.3349,-5.3298,-5.3336,-5.3293,-5.3326,-5.3303,-5.3367,-5.3374,-5.3365,-5.3358,-5.337,-5.3372,-5.3381,-5.3371,-5.3339,-5.3338,-5.3337,-5.3336,0,-5.3309,-5.3286,-5.3357,-5.3351,-5.3351,-5.3404,-5.3397,-5.3436,-5.342,-5.3471,-5.348,-5.3456,-5.3493,-5.3465,-5.35,-5.3484,-5.3571,-5.355,-5.3569,-5.3564,-5.3633,-5.3627,-5.386,-5.3889,-5.3668,-5.367,-5.3672,0,-5.3413,-5.3462,-5.3462,-5.3486,-5.349,-5.3528,-5.3548,-5.3512,-5.3534,-5.3546,-5.3583,-5.3616,-5.3641,-5.3703,-5.3687,-5.3715,-5.3695,-5.3775,-5.3699,-5.371,-5.3697,-5.3695,-5.37,-5.379,-5.3793,-5.3795,-5.3797,0,-5.36,-5.3587,-5.3618,-5.3646,-5.3671,-5.369,-5.3705,-5.3727,-5.3691,-5.3718,-5.3757,-5.3776,-5.3814,-5.3847,-5.387,-5.3869,-5.3827,-5.3821,-5.3838,-5.3851,-5.3861,-5.3857,-5.3612,-5.3816,-5.3814,-5.3812,-5.3811,-5.3811,-5.374,-5.3781,-5.3788,-5.3825,-5.3833,-5.3849,-5.3885,-5.3875,-5.3907,-5.3936,-5.3912,-5.3958,-5.3964,-5.399,-5.3994,-5.4029,-5.3996,-5.4021,-5.4027,-5.4034,-5.4045,-5.3855,-5.4033,-5.4033,-5.4032,-5.4032,-5.4031,0,-5.3925,-5.3927,-5.3961,-5.3985,-5.4014,-5.3974,-5.3989,-5.4015,-5.4057,-5.4066,-5.4092,-5.4137,-5.4169,-5.4157,-5.4186,-5.4216,-5.4198,-5.4225,-5.4223,-5.4223,-5.4072,-5.4055,-5.424,-5.424,-5.424,-5.424,-5.4239,-5.4239,-5.4025,-5.4093,-5.4081,-5.4153,-5.4153,-5.42,-5.4212,-5.4226,-5.4233,-5.4286,-5.4314,-5.4306,-5.4307,-5.4335,-5.4364,-5.4359,-5.4372,-5.4407,-5.4396,-5.4254,-5.4234,-5.4214,-5.4198,-5.441,-5.441,-5.4544,-5.4545,-5.4546]}]]